Netzbetreibername:;Osterholzer Stadtwerke GmbH & Co. KG;;
Netz- oder Umspannebene:;Netzgebiet;;
Lastgangtyp:;Summenlast der Netzverluste;;
gesetzliche Grundlage:;� 23c Abs. 3 Nr. 3 EnWG;;
Einheit:;kW;;
Betrachtungszeitraum:;01.01.2023;31.12.2023;
;;;
Datum;von;bis;Wert
01.01.2023;00:00;00:15;525
01.01.2023;00:15;00:30;509
01.01.2023;00:30;00:45;506
01.01.2023;00:45;01:00;495
01.01.2023;01:00;01:15;483
01.01.2023;01:15;01:30;473
01.01.2023;01:30;01:45;466
01.01.2023;01:45;02:00;453
01.01.2023;02:00;02:15;444
01.01.2023;02:15;02:30;439
01.01.2023;02:30;02:45;426
01.01.2023;02:45;03:00;422
01.01.2023;03:00;03:15;420
01.01.2023;03:15;03:30;418
01.01.2023;03:30;03:45;410
01.01.2023;03:45;04:00;408
01.01.2023;04:00;04:15;409
01.01.2023;04:15;04:30;405
01.01.2023;04:30;04:45;402
01.01.2023;04:45;05:00;398
01.01.2023;05:00;05:15;401
01.01.2023;05:15;05:30;404
01.01.2023;05:30;05:45;398
01.01.2023;05:45;06:00;395
01.01.2023;06:00;06:15;401
01.01.2023;06:15;06:30;406
01.01.2023;06:30;06:45;410
01.01.2023;06:45;07:00;407
01.01.2023;07:00;07:15;412
01.01.2023;07:15;07:30;413
01.01.2023;07:30;07:45;422
01.01.2023;07:45;08:00;438
01.01.2023;08:00;08:15;449
01.01.2023;08:15;08:30;453
01.01.2023;08:30;08:45;479
01.01.2023;08:45;09:00;497
01.01.2023;09:00;09:15;508
01.01.2023;09:15;09:30;534
01.01.2023;09:30;09:45;567
01.01.2023;09:45;10:00;597
01.01.2023;10:00;10:15;615
01.01.2023;10:15;10:30;637
01.01.2023;10:30;10:45;652
01.01.2023;10:45;11:00;652
01.01.2023;11:00;11:15;665
01.01.2023;11:15;11:30;685
01.01.2023;11:30;11:45;672
01.01.2023;11:45;12:00;719
01.01.2023;12:00;12:15;721
01.01.2023;12:15;12:30;749
01.01.2023;12:30;12:45;735
01.01.2023;12:45;13:00;697
01.01.2023;13:00;13:15;662
01.01.2023;13:15;13:30;671
01.01.2023;13:30;13:45;720
01.01.2023;13:45;14:00;710
01.01.2023;14:00;14:15;709
01.01.2023;14:15;14:30;701
01.01.2023;14:30;14:45;687
01.01.2023;14:45;15:00;692
01.01.2023;15:00;15:15;662
01.01.2023;15:15;15:30;717
01.01.2023;15:30;15:45;737
01.01.2023;15:45;16:00;743
01.01.2023;16:00;16:15;790
01.01.2023;16:15;16:30;827
01.01.2023;16:30;16:45;893
01.01.2023;16:45;17:00;954
01.01.2023;17:00;17:15;1.008
01.01.2023;17:15;17:30;1.044
01.01.2023;17:30;17:45;1.083
01.01.2023;17:45;18:00;1.120
01.01.2023;18:00;18:15;1.113
01.01.2023;18:15;18:30;1.124
01.01.2023;18:30;18:45;1.094
01.01.2023;18:45;19:00;1.091
01.01.2023;19:00;19:15;1.046
01.01.2023;19:15;19:30;997
01.01.2023;19:30;19:45;953
01.01.2023;19:45;20:00;931
01.01.2023;20:00;20:15;877
01.01.2023;20:15;20:30;841
01.01.2023;20:30;20:45;809
01.01.2023;20:45;21:00;787
01.01.2023;21:00;21:15;773
01.01.2023;21:15;21:30;748
01.01.2023;21:30;21:45;728
01.01.2023;21:45;22:00;730
01.01.2023;22:00;22:15;681
01.01.2023;22:15;22:30;660
01.01.2023;22:30;22:45;612
01.01.2023;22:45;23:00;595
01.01.2023;23:00;23:15;561
01.01.2023;23:15;23:30;540
01.01.2023;23:30;23:45;510
02.01.2023;23:45;00:00;481
02.01.2023;00:00;00:15;459
02.01.2023;00:15;00:30;449
02.01.2023;00:30;00:45;434
02.01.2023;00:45;01:00;416
02.01.2023;01:00;01:15;404
02.01.2023;01:15;01:30;398
02.01.2023;01:30;01:45;392
02.01.2023;01:45;02:00;395
02.01.2023;02:00;02:15;398
02.01.2023;02:15;02:30;382,3832218
02.01.2023;02:30;02:45;402,5587132
02.01.2023;02:45;03:00;383,6171082
02.01.2023;03:00;03:15;386,3036655
02.01.2023;03:15;03:30;391
02.01.2023;03:30;03:45;400
02.01.2023;03:45;04:00;398
02.01.2023;04:00;04:15;402
02.01.2023;04:15;04:30;419
02.01.2023;04:30;04:45;435
02.01.2023;04:45;05:00;422
02.01.2023;05:00;05:15;464
02.01.2023;05:15;05:30;453
02.01.2023;05:30;05:45;469
02.01.2023;05:45;06:00;489
02.01.2023;06:00;06:15;553
02.01.2023;06:15;06:30;568
02.01.2023;06:30;06:45;615
02.01.2023;06:45;07:00;630
02.01.2023;07:00;07:15;638
02.01.2023;07:15;07:30;692
02.01.2023;07:30;07:45;702
02.01.2023;07:45;08:00;768
02.01.2023;08:00;08:15;810
02.01.2023;08:15;08:30;862
02.01.2023;08:30;08:45;860
02.01.2023;08:45;09:00;915
02.01.2023;09:00;09:15;925
02.01.2023;09:15;09:30;959
02.01.2023;09:30;09:45;951
02.01.2023;09:45;10:00;960
02.01.2023;10:00;10:15;973
02.01.2023;10:15;10:30;998
02.01.2023;10:30;10:45;1.013
02.01.2023;10:45;11:00;1.041
02.01.2023;11:00;11:15;1.086
02.01.2023;11:15;11:30;1.046
02.01.2023;11:30;11:45;1.093
02.01.2023;11:45;12:00;1.085
02.01.2023;12:00;12:15;1.119
02.01.2023;12:15;12:30;1.164
02.01.2023;12:30;12:45;1.133
02.01.2023;12:45;13:00;1.109
02.01.2023;13:00;13:15;1.131
02.01.2023;13:15;13:30;1.022
02.01.2023;13:30;13:45;1.066
02.01.2023;13:45;14:00;1.013
02.01.2023;14:00;14:15;1.042
02.01.2023;14:15;14:30;985
02.01.2023;14:30;14:45;1.030
02.01.2023;14:45;15:00;990
02.01.2023;15:00;15:15;1.041
02.01.2023;15:15;15:30;1.034
02.01.2023;15:30;15:45;1.008
02.01.2023;15:45;16:00;1.038
02.01.2023;16:00;16:15;1.055
02.01.2023;16:15;16:30;1.103
02.01.2023;16:30;16:45;1.157
02.01.2023;16:45;17:00;1.223
02.01.2023;17:00;17:15;1.255
02.01.2023;17:15;17:30;1.309
02.01.2023;17:30;17:45;1.340
02.01.2023;17:45;18:00;1.363
02.01.2023;18:00;18:15;1.354
02.01.2023;18:15;18:30;1.313
02.01.2023;18:30;18:45;1.278
02.01.2023;18:45;19:00;1.308
02.01.2023;19:00;19:15;1.281
02.01.2023;19:15;19:30;1.240
02.01.2023;19:30;19:45;1.164
02.01.2023;19:45;20:00;1.114
02.01.2023;20:00;20:15;1.084
02.01.2023;20:15;20:30;976
02.01.2023;20:30;20:45;985
02.01.2023;20:45;21:00;933
02.01.2023;21:00;21:15;931
02.01.2023;21:15;21:30;874
02.01.2023;21:30;21:45;859
02.01.2023;21:45;22:00;847
02.01.2023;22:00;22:15;809
02.01.2023;22:15;22:30;762
02.01.2023;22:30;22:45;726
02.01.2023;22:45;23:00;687
02.01.2023;23:00;23:15;646
02.01.2023;23:15;23:30;615
02.01.2023;23:30;23:45;592
03.01.2023;23:45;00:00;550
03.01.2023;00:00;00:15;531
03.01.2023;00:15;00:30;515
03.01.2023;00:30;00:45;495
03.01.2023;00:45;01:00;488
03.01.2023;01:00;01:15;470
03.01.2023;01:15;01:30;475
03.01.2023;01:30;01:45;465
03.01.2023;01:45;02:00;463
03.01.2023;02:00;02:15;461
03.01.2023;02:15;02:30;464
03.01.2023;02:30;02:45;472
03.01.2023;02:45;03:00;470
03.01.2023;03:00;03:15;464
03.01.2023;03:15;03:30;461
03.01.2023;03:30;03:45;476
03.01.2023;03:45;04:00;469
03.01.2023;04:00;04:15;486
03.01.2023;04:15;04:30;479
03.01.2023;04:30;04:45;490
03.01.2023;04:45;05:00;501
03.01.2023;05:00;05:15;526
03.01.2023;05:15;05:30;528
03.01.2023;05:30;05:45;552
03.01.2023;05:45;06:00;588
03.01.2023;06:00;06:15;629
03.01.2023;06:15;06:30;667
03.01.2023;06:30;06:45;686
03.01.2023;06:45;07:00;711
03.01.2023;07:00;07:15;734
03.01.2023;07:15;07:30;766
03.01.2023;07:30;07:45;824
03.01.2023;07:45;08:00;856
03.01.2023;08:00;08:15;895
03.01.2023;08:15;08:30;919
03.01.2023;08:30;08:45;943
03.01.2023;08:45;09:00;951
03.01.2023;09:00;09:15;971
03.01.2023;09:15;09:30;991
03.01.2023;09:30;09:45;1.001
03.01.2023;09:45;10:00;1.012
03.01.2023;10:00;10:15;997
03.01.2023;10:15;10:30;973
03.01.2023;10:30;10:45;944
03.01.2023;10:45;11:00;931
03.01.2023;11:00;11:15;924
03.01.2023;11:15;11:30;929
03.01.2023;11:30;11:45;955
03.01.2023;11:45;12:00;999
03.01.2023;12:00;12:15;1.013
03.01.2023;12:15;12:30;1.017
03.01.2023;12:30;12:45;1.036
03.01.2023;12:45;13:00;1.049
03.01.2023;13:00;13:15;1.035
03.01.2023;13:15;13:30;1.032
03.01.2023;13:30;13:45;1.037
03.01.2023;13:45;14:00;1.018
03.01.2023;14:00;14:15;1.017
03.01.2023;14:15;14:30;1.002
03.01.2023;14:30;14:45;1.015
03.01.2023;14:45;15:00;1.025
03.01.2023;15:00;15:15;1.035
03.01.2023;15:15;15:30;1.054
03.01.2023;15:30;15:45;1.047
03.01.2023;15:45;16:00;1.070
03.01.2023;16:00;16:15;1.088
03.01.2023;16:15;16:30;1.126
03.01.2023;16:30;16:45;1.190
03.01.2023;16:45;17:00;1.232
03.01.2023;17:00;17:15;1.290
03.01.2023;17:15;17:30;1.318
03.01.2023;17:30;17:45;1.396
03.01.2023;17:45;18:00;1.404
03.01.2023;18:00;18:15;1.389
03.01.2023;18:15;18:30;1.377
03.01.2023;18:30;18:45;1.349
03.01.2023;18:45;19:00;1.321
03.01.2023;19:00;19:15;1.280
03.01.2023;19:15;19:30;1.206
03.01.2023;19:30;19:45;1.164
03.01.2023;19:45;20:00;1.143
03.01.2023;20:00;20:15;1.090
03.01.2023;20:15;20:30;1.013
03.01.2023;20:30;20:45;990
03.01.2023;20:45;21:00;956
03.01.2023;21:00;21:15;950
03.01.2023;21:15;21:30;908
03.01.2023;21:30;21:45;897
03.01.2023;21:45;22:00;887
03.01.2023;22:00;22:15;833
03.01.2023;22:15;22:30;772
03.01.2023;22:30;22:45;741
03.01.2023;22:45;23:00;690
03.01.2023;23:00;23:15;643
03.01.2023;23:15;23:30;632
03.01.2023;23:30;23:45;592
04.01.2023;23:45;00:00;565
04.01.2023;00:00;00:15;532
04.01.2023;00:15;00:30;521
04.01.2023;00:30;00:45;500
04.01.2023;00:45;01:00;486
04.01.2023;01:00;01:15;482
04.01.2023;01:15;01:30;480
04.01.2023;01:30;01:45;462
04.01.2023;01:45;02:00;468
04.01.2023;02:00;02:15;458
04.01.2023;02:15;02:30;456
04.01.2023;02:30;02:45;450
04.01.2023;02:45;03:00;451
04.01.2023;03:00;03:15;448
04.01.2023;03:15;03:30;446
04.01.2023;03:30;03:45;437
04.01.2023;03:45;04:00;443
04.01.2023;04:00;04:15;457
04.01.2023;04:15;04:30;462
04.01.2023;04:30;04:45;465
04.01.2023;04:45;05:00;472
04.01.2023;05:00;05:15;496
04.01.2023;05:15;05:30;507
04.01.2023;05:30;05:45;534
04.01.2023;05:45;06:00;561
04.01.2023;06:00;06:15;616
04.01.2023;06:15;06:30;646
04.01.2023;06:30;06:45;675
04.01.2023;06:45;07:00;707
04.01.2023;07:00;07:15;718
04.01.2023;07:15;07:30;760
04.01.2023;07:30;07:45;805
04.01.2023;07:45;08:00;845
04.01.2023;08:00;08:15;890
04.01.2023;08:15;08:30;902
04.01.2023;08:30;08:45;940
04.01.2023;08:45;09:00;975
04.01.2023;09:00;09:15;985
04.01.2023;09:15;09:30;1.012
04.01.2023;09:30;09:45;1.007
04.01.2023;09:45;10:00;1.017
04.01.2023;10:00;10:15;1.058
04.01.2023;10:15;10:30;1.060
04.01.2023;10:30;10:45;1.079
04.01.2023;10:45;11:00;1.065
04.01.2023;11:00;11:15;1.085
04.01.2023;11:15;11:30;1.073
04.01.2023;11:30;11:45;1.123
04.01.2023;11:45;12:00;1.113
04.01.2023;12:00;12:15;1.114
04.01.2023;12:15;12:30;1.109
04.01.2023;12:30;12:45;1.118
04.01.2023;12:45;13:00;1.097
04.01.2023;13:00;13:15;1.126
04.01.2023;13:15;13:30;1.113
04.01.2023;13:30;13:45;1.110
04.01.2023;13:45;14:00;1.075
04.01.2023;14:00;14:15;1.076
04.01.2023;14:15;14:30;1.061
04.01.2023;14:30;14:45;1.023
04.01.2023;14:45;15:00;1.091
04.01.2023;15:00;15:15;1.045
04.01.2023;15:15;15:30;1.046
04.01.2023;15:30;15:45;1.036
04.01.2023;15:45;16:00;1.044
04.01.2023;16:00;16:15;1.076
04.01.2023;16:15;16:30;1.094
04.01.2023;16:30;16:45;1.147
04.01.2023;16:45;17:00;1.197
04.01.2023;17:00;17:15;1.291
04.01.2023;17:15;17:30;1.289
04.01.2023;17:30;17:45;1.349
04.01.2023;17:45;18:00;1.369
04.01.2023;18:00;18:15;1.371
04.01.2023;18:15;18:30;1.353
04.01.2023;18:30;18:45;1.344
04.01.2023;18:45;19:00;1.320
04.01.2023;19:00;19:15;1.265
04.01.2023;19:15;19:30;1.212
04.01.2023;19:30;19:45;1.150
04.01.2023;19:45;20:00;1.113
04.01.2023;20:00;20:15;1.107
04.01.2023;20:15;20:30;1.066
04.01.2023;20:30;20:45;981
04.01.2023;20:45;21:00;954
04.01.2023;21:00;21:15;959
04.01.2023;21:15;21:30;921
04.01.2023;21:30;21:45;881
04.01.2023;21:45;22:00;856
04.01.2023;22:00;22:15;814
04.01.2023;22:15;22:30;794
04.01.2023;22:30;22:45;700
04.01.2023;22:45;23:00;686
04.01.2023;23:00;23:15;635
04.01.2023;23:15;23:30;615
04.01.2023;23:30;23:45;571
05.01.2023;23:45;00:00;536
05.01.2023;00:00;00:15;577
05.01.2023;00:15;00:30;505
05.01.2023;00:30;00:45;490
05.01.2023;00:45;01:00;477
05.01.2023;01:00;01:15;465
05.01.2023;01:15;01:30;458
05.01.2023;01:30;01:45;455
05.01.2023;01:45;02:00;454
05.01.2023;02:00;02:15;449
05.01.2023;02:15;02:30;447
05.01.2023;02:30;02:45;442
05.01.2023;02:45;03:00;445
05.01.2023;03:00;03:15;398
05.01.2023;03:15;03:30;444
05.01.2023;03:30;03:45;443
05.01.2023;03:45;04:00;452
05.01.2023;04:00;04:15;458
05.01.2023;04:15;04:30;474
05.01.2023;04:30;04:45;470
05.01.2023;04:45;05:00;478
05.01.2023;05:00;05:15;501
05.01.2023;05:15;05:30;503
05.01.2023;05:30;05:45;537
05.01.2023;05:45;06:00;586
05.01.2023;06:00;06:15;637
05.01.2023;06:15;06:30;648
05.01.2023;06:30;06:45;676
05.01.2023;06:45;07:00;759
05.01.2023;07:00;07:15;751
05.01.2023;07:15;07:30;781
05.01.2023;07:30;07:45;870
05.01.2023;07:45;08:00;876
05.01.2023;08:00;08:15;941
05.01.2023;08:15;08:30;898
05.01.2023;08:30;08:45;964
05.01.2023;08:45;09:00;998
05.01.2023;09:00;09:15;953
05.01.2023;09:15;09:30;1.001
05.01.2023;09:30;09:45;1.009
05.01.2023;09:45;10:00;998
05.01.2023;10:00;10:15;967
05.01.2023;10:15;10:30;961
05.01.2023;10:30;10:45;920
05.01.2023;10:45;11:00;923
05.01.2023;11:00;11:15;917
05.01.2023;11:15;11:30;927
05.01.2023;11:30;11:45;931
05.01.2023;11:45;12:00;911
05.01.2023;12:00;12:15;895
05.01.2023;12:15;12:30;875
05.01.2023;12:30;12:45;892
05.01.2023;12:45;13:00;916
05.01.2023;13:00;13:15;952
05.01.2023;13:15;13:30;907
05.01.2023;13:30;13:45;878
05.01.2023;13:45;14:00;849
05.01.2023;14:00;14:15;901
05.01.2023;14:15;14:30;930
05.01.2023;14:30;14:45;922
05.01.2023;14:45;15:00;886
05.01.2023;15:00;15:15;898
05.01.2023;15:15;15:30;900
05.01.2023;15:30;15:45;911
05.01.2023;15:45;16:00;947
05.01.2023;16:00;16:15;993
05.01.2023;16:15;16:30;1.014
05.01.2023;16:30;16:45;1.074
05.01.2023;16:45;17:00;1.182
05.01.2023;17:00;17:15;1.214
05.01.2023;17:15;17:30;1.267
05.01.2023;17:30;17:45;1.319
05.01.2023;17:45;18:00;1.344
05.01.2023;18:00;18:15;1.350
05.01.2023;18:15;18:30;1.335
05.01.2023;18:30;18:45;1.334
05.01.2023;18:45;19:00;1.310
05.01.2023;19:00;19:15;1.243
05.01.2023;19:15;19:30;1.199
05.01.2023;19:30;19:45;1.145
05.01.2023;19:45;20:00;1.099
05.01.2023;20:00;20:15;1.052
05.01.2023;20:15;20:30;999
05.01.2023;20:30;20:45;957
05.01.2023;20:45;21:00;923
05.01.2023;21:00;21:15;917
05.01.2023;21:15;21:30;896
05.01.2023;21:30;21:45;872
05.01.2023;21:45;22:00;838
05.01.2023;22:00;22:15;806
05.01.2023;22:15;22:30;754
05.01.2023;22:30;22:45;688
05.01.2023;22:45;23:00;656
05.01.2023;23:00;23:15;612
05.01.2023;23:15;23:30;587
05.01.2023;23:30;23:45;554
06.01.2023;23:45;00:00;541
06.01.2023;00:00;00:15;515
06.01.2023;00:15;00:30;501
06.01.2023;00:30;00:45;479
06.01.2023;00:45;01:00;469
06.01.2023;01:00;01:15;460
06.01.2023;01:15;01:30;447
06.01.2023;01:30;01:45;442
06.01.2023;01:45;02:00;436
06.01.2023;02:00;02:15;434
06.01.2023;02:15;02:30;425
06.01.2023;02:30;02:45;437
06.01.2023;02:45;03:00;433
06.01.2023;03:00;03:15;429
06.01.2023;03:15;03:30;432
06.01.2023;03:30;03:45;428
06.01.2023;03:45;04:00;434
06.01.2023;04:00;04:15;451
06.01.2023;04:15;04:30;450
06.01.2023;04:30;04:45;456
06.01.2023;04:45;05:00;454
06.01.2023;05:00;05:15;504
06.01.2023;05:15;05:30;500
06.01.2023;05:30;05:45;522
06.01.2023;05:45;06:00;541
06.01.2023;06:00;06:15;600
06.01.2023;06:15;06:30;634
06.01.2023;06:30;06:45;641
06.01.2023;06:45;07:00;669
06.01.2023;07:00;07:15;708
06.01.2023;07:15;07:30;756
06.01.2023;07:30;07:45;809
06.01.2023;07:45;08:00;854
06.01.2023;08:00;08:15;894
06.01.2023;08:15;08:30;926
06.01.2023;08:30;08:45;968
06.01.2023;08:45;09:00;1.006
06.01.2023;09:00;09:15;1.018
06.01.2023;09:15;09:30;1.041
06.01.2023;09:30;09:45;1.033
06.01.2023;09:45;10:00;1.056
06.01.2023;10:00;10:15;1.075
06.01.2023;10:15;10:30;1.085
06.01.2023;10:30;10:45;1.078
06.01.2023;10:45;11:00;1.120
06.01.2023;11:00;11:15;1.062
06.01.2023;11:15;11:30;1.089
06.01.2023;11:30;11:45;1.000
06.01.2023;11:45;12:00;936
06.01.2023;12:00;12:15;943
06.01.2023;12:15;12:30;956
06.01.2023;12:30;12:45;906
06.01.2023;12:45;13:00;929
06.01.2023;13:00;13:15;920
06.01.2023;13:15;13:30;885
06.01.2023;13:30;13:45;825
06.01.2023;13:45;14:00;896
06.01.2023;14:00;14:15;818
06.01.2023;14:15;14:30;893
06.01.2023;14:30;14:45;905
06.01.2023;14:45;15:00;922
06.01.2023;15:00;15:15;911
06.01.2023;15:15;15:30;910
06.01.2023;15:30;15:45;952
06.01.2023;15:45;16:00;958
06.01.2023;16:00;16:15;1.008
06.01.2023;16:15;16:30;1.058
06.01.2023;16:30;16:45;1.075
06.01.2023;16:45;17:00;1.166
06.01.2023;17:00;17:15;1.203
06.01.2023;17:15;17:30;1.250
06.01.2023;17:30;17:45;1.307
06.01.2023;17:45;18:00;1.333
06.01.2023;18:00;18:15;1.341
06.01.2023;18:15;18:30;1.317
06.01.2023;18:30;18:45;1.317
06.01.2023;18:45;19:00;1.278
06.01.2023;19:00;19:15;1.240
06.01.2023;19:15;19:30;1.169
06.01.2023;19:30;19:45;1.131
06.01.2023;19:45;20:00;1.074
06.01.2023;20:00;20:15;1.054
06.01.2023;20:15;20:30;982
06.01.2023;20:30;20:45;958
06.01.2023;20:45;21:00;929
06.01.2023;21:00;21:15;921
06.01.2023;21:15;21:30;896
06.01.2023;21:30;21:45;867
06.01.2023;21:45;22:00;828
06.01.2023;22:00;22:15;788
06.01.2023;22:15;22:30;754
06.01.2023;22:30;22:45;712
06.01.2023;22:45;23:00;689
06.01.2023;23:00;23:15;645
06.01.2023;23:15;23:30;622
06.01.2023;23:30;23:45;589
07.01.2023;23:45;00:00;574
07.01.2023;00:00;00:15;558
07.01.2023;00:15;00:30;522
07.01.2023;00:30;00:45;486
07.01.2023;00:45;01:00;487
07.01.2023;01:00;01:15;476
07.01.2023;01:15;01:30;462
07.01.2023;01:30;01:45;458
07.01.2023;01:45;02:00;444
07.01.2023;02:00;02:15;446
07.01.2023;02:15;02:30;429
07.01.2023;02:30;02:45;436
07.01.2023;02:45;03:00;432
07.01.2023;03:00;03:15;422
07.01.2023;03:15;03:30;429
07.01.2023;03:30;03:45;423
07.01.2023;03:45;04:00;426
07.01.2023;04:00;04:15;432
07.01.2023;04:15;04:30;429
07.01.2023;04:30;04:45;425
07.01.2023;04:45;05:00;431
07.01.2023;05:00;05:15;442
07.01.2023;05:15;05:30;442
07.01.2023;05:30;05:45;453
07.01.2023;05:45;06:00;467
07.01.2023;06:00;06:15;482
07.01.2023;06:15;06:30;503
07.01.2023;06:30;06:45;507
07.01.2023;06:45;07:00;518
07.01.2023;07:00;07:15;513
07.01.2023;07:15;07:30;542
07.01.2023;07:30;07:45;595
07.01.2023;07:45;08:00;620
07.01.2023;08:00;08:15;662
07.01.2023;08:15;08:30;685
07.01.2023;08:30;08:45;734
07.01.2023;08:45;09:00;770
07.01.2023;09:00;09:15;813
07.01.2023;09:15;09:30;813
07.01.2023;09:30;09:45;864
07.01.2023;09:45;10:00;868
07.01.2023;10:00;10:15;857
07.01.2023;10:15;10:30;835
07.01.2023;10:30;10:45;844
07.01.2023;10:45;11:00;848
07.01.2023;11:00;11:15;864
07.01.2023;11:15;11:30;956
07.01.2023;11:30;11:45;974
07.01.2023;11:45;12:00;976
07.01.2023;12:00;12:15;964
07.01.2023;12:15;12:30;983
07.01.2023;12:30;12:45;988
07.01.2023;12:45;13:00;997
07.01.2023;13:00;13:15;952
07.01.2023;13:15;13:30;962
07.01.2023;13:30;13:45;952
07.01.2023;13:45;14:00;930
07.01.2023;14:00;14:15;917
07.01.2023;14:15;14:30;883
07.01.2023;14:30;14:45;886
07.01.2023;14:45;15:00;877
07.01.2023;15:00;15:15;865
07.01.2023;15:15;15:30;859
07.01.2023;15:30;15:45;858
07.01.2023;15:45;16:00;891
07.01.2023;16:00;16:15;887
07.01.2023;16:15;16:30;935
07.01.2023;16:30;16:45;970
07.01.2023;16:45;17:00;1.059
07.01.2023;17:00;17:15;1.136
07.01.2023;17:15;17:30;1.148
07.01.2023;17:30;17:45;1.201
07.01.2023;17:45;18:00;1.233
07.01.2023;18:00;18:15;1.219
07.01.2023;18:15;18:30;1.243
07.01.2023;18:30;18:45;1.203
07.01.2023;18:45;19:00;1.201
07.01.2023;19:00;19:15;1.138
07.01.2023;19:15;19:30;1.094
07.01.2023;19:30;19:45;1.053
07.01.2023;19:45;20:00;1.007
07.01.2023;20:00;20:15;973
07.01.2023;20:15;20:30;936
07.01.2023;20:30;20:45;904
07.01.2023;20:45;21:00;844
07.01.2023;21:00;21:15;860
07.01.2023;21:15;21:30;841
07.01.2023;21:30;21:45;825
07.01.2023;21:45;22:00;792
07.01.2023;22:00;22:15;746
07.01.2023;22:15;22:30;701
07.01.2023;22:30;22:45;662
07.01.2023;22:45;23:00;653
07.01.2023;23:00;23:15;618
07.01.2023;23:15;23:30;587
07.01.2023;23:30;23:45;561
08.01.2023;23:45;00:00;545
08.01.2023;00:00;00:15;520
08.01.2023;00:15;00:30;501
08.01.2023;00:30;00:45;479
08.01.2023;00:45;01:00;461
08.01.2023;01:00;01:15;452
08.01.2023;01:15;01:30;440
08.01.2023;01:30;01:45;436
08.01.2023;01:45;02:00;421
08.01.2023;02:00;02:15;425
08.01.2023;02:15;02:30;412
08.01.2023;02:30;02:45;423
08.01.2023;02:45;03:00;410
08.01.2023;03:00;03:15;422
08.01.2023;03:15;03:30;408
08.01.2023;03:30;03:45;404
08.01.2023;03:45;04:00;410
08.01.2023;04:00;04:15;417
08.01.2023;04:15;04:30;413
08.01.2023;04:30;04:45;405
08.01.2023;04:45;05:00;418
08.01.2023;05:00;05:15;422
08.01.2023;05:15;05:30;416
08.01.2023;05:30;05:45;422
08.01.2023;05:45;06:00;431
08.01.2023;06:00;06:15;438
08.01.2023;06:15;06:30;440
08.01.2023;06:30;06:45;453
08.01.2023;06:45;07:00;463
08.01.2023;07:00;07:15;474
08.01.2023;07:15;07:30;488
08.01.2023;07:30;07:45;517
08.01.2023;07:45;08:00;536
08.01.2023;08:00;08:15;578
08.01.2023;08:15;08:30;592
08.01.2023;08:30;08:45;648
08.01.2023;08:45;09:00;682
08.01.2023;09:00;09:15;716
08.01.2023;09:15;09:30;736
08.01.2023;09:30;09:45;765
08.01.2023;09:45;10:00;794
08.01.2023;10:00;10:15;816
08.01.2023;10:15;10:30;855
08.01.2023;10:30;10:45;875
08.01.2023;10:45;11:00;875
08.01.2023;11:00;11:15;886
08.01.2023;11:15;11:30;872
08.01.2023;11:30;11:45;849
08.01.2023;11:45;12:00;879
08.01.2023;12:00;12:15;853
08.01.2023;12:15;12:30;886
08.01.2023;12:30;12:45;853
08.01.2023;12:45;13:00;810
08.01.2023;13:00;13:15;793
08.01.2023;13:15;13:30;794
08.01.2023;13:30;13:45;768
08.01.2023;13:45;14:00;762
08.01.2023;14:00;14:15;753
08.01.2023;14:15;14:30;814
08.01.2023;14:30;14:45;815
08.01.2023;14:45;15:00;760
08.01.2023;15:00;15:15;796
08.01.2023;15:15;15:30;800
08.01.2023;15:30;15:45;839
08.01.2023;15:45;16:00;833
08.01.2023;16:00;16:15;837
08.01.2023;16:15;16:30;902
08.01.2023;16:30;16:45;990
08.01.2023;16:45;17:00;1.033
08.01.2023;17:00;17:15;1.102
08.01.2023;17:15;17:30;1.133
08.01.2023;17:30;17:45;1.173
08.01.2023;17:45;18:00;1.210
08.01.2023;18:00;18:15;1.216
08.01.2023;18:15;18:30;1.185
08.01.2023;18:30;18:45;1.241
08.01.2023;18:45;19:00;1.177
08.01.2023;19:00;19:15;1.128
08.01.2023;19:15;19:30;1.079
08.01.2023;19:30;19:45;1.050
08.01.2023;19:45;20:00;1.004
08.01.2023;20:00;20:15;979
08.01.2023;20:15;20:30;926
08.01.2023;20:30;20:45;889
08.01.2023;20:45;21:00;877
08.01.2023;21:00;21:15;840
08.01.2023;21:15;21:30;809
08.01.2023;21:30;21:45;782
08.01.2023;21:45;22:00;772
08.01.2023;22:00;22:15;726
08.01.2023;22:15;22:30;689
08.01.2023;22:30;22:45;652
08.01.2023;22:45;23:00;613
08.01.2023;23:00;23:15;594
08.01.2023;23:15;23:30;556
08.01.2023;23:30;23:45;525
09.01.2023;23:45;00:00;496
09.01.2023;00:00;00:15;488
09.01.2023;00:15;00:30;480
09.01.2023;00:30;00:45;468
09.01.2023;00:45;01:00;444
09.01.2023;01:00;01:15;430
09.01.2023;01:15;01:30;426
09.01.2023;01:30;01:45;422
09.01.2023;01:45;02:00;419
09.01.2023;02:00;02:15;421
09.01.2023;02:15;02:30;423
09.01.2023;02:30;02:45;418
09.01.2023;02:45;03:00;430
09.01.2023;03:00;03:15;412
09.01.2023;03:15;03:30;428
09.01.2023;03:30;03:45;439
09.01.2023;03:45;04:00;442
09.01.2023;04:00;04:15;442
09.01.2023;04:15;04:30;447
09.01.2023;04:30;04:45;458
09.01.2023;04:45;05:00;477
09.01.2023;05:00;05:15;500
09.01.2023;05:15;05:30;521
09.01.2023;05:30;05:45;539
09.01.2023;05:45;06:00;575
09.01.2023;06:00;06:15;651
09.01.2023;06:15;06:30;701
09.01.2023;06:30;06:45;771
09.01.2023;06:45;07:00;819
09.01.2023;07:00;07:15;827
09.01.2023;07:15;07:30;880
09.01.2023;07:30;07:45;919
09.01.2023;07:45;08:00;992
09.01.2023;08:00;08:15;1.020
09.01.2023;08:15;08:30;1.012
09.01.2023;08:30;08:45;1.032
09.01.2023;08:45;09:00;1.039
09.01.2023;09:00;09:15;1.085
09.01.2023;09:15;09:30;1.038
09.01.2023;09:30;09:45;1.077
09.01.2023;09:45;10:00;1.057
09.01.2023;10:00;10:15;1.039
09.01.2023;10:15;10:30;1.023
09.01.2023;10:30;10:45;1.009
09.01.2023;10:45;11:00;1.036
09.01.2023;11:00;11:15;1.026
09.01.2023;11:15;11:30;1.043
09.01.2023;11:30;11:45;1.057
09.01.2023;11:45;12:00;1.065
09.01.2023;12:00;12:15;1.061
09.01.2023;12:15;12:30;1.106
09.01.2023;12:30;12:45;1.122
09.01.2023;12:45;13:00;1.111
09.01.2023;13:00;13:15;1.124
09.01.2023;13:15;13:30;1.122
09.01.2023;13:30;13:45;1.088
09.01.2023;13:45;14:00;1.080
09.01.2023;14:00;14:15;1.034
09.01.2023;14:15;14:30;1.042
09.01.2023;14:30;14:45;1.030
09.01.2023;14:45;15:00;1.035
09.01.2023;15:00;15:15;1.043